Location: ??
(34.9170°N, 135.5016°E)
Time: 19:41:36
(UTC+00:00)

Altair - All Passes

Search period start: 04 March 2021 00:00
Search period end: 14 March 2021 00:00
Orbit: 1501 x 1682 km, 47.2° (Epoch: 03 March)

Date Brightness Start Highest point End Pass type
(mag) Time Alt. Az. Time Alt. Az. Time Alt. Az.
04 Mar - 06:33:02 10° SSE 06:38:54 19° SE 06:44:46 10° E daylight
04 Mar - 08:33:17 10° SW 08:42:24 75° SE 08:51:43 10° ENE daylight
04 Mar - 10:38:45 10° W 10:47:37 48° NNW 10:56:45 10° NE visible
04 Mar - 12:45:33 10° WNW 12:54:15 40° N 13:03:14 10° ENE visible
04 Mar - 14:50:53 10° NW 15:00:26 68° NNE 15:10:20 10° ESE visible
04 Mar - 16:55:58 10° WNW 17:04:59 44° SW 17:14:17 10° SSE night (unlit)
05 Mar - 06:08:40 10° SSE 06:13:52 17° ESE 06:19:03 10° E daylight
05 Mar - 08:08:12 10° SW 08:17:15 69° SE 08:26:30 10° ENE daylight
05 Mar - 10:13:27 10° W 10:22:20 50° NNW 10:31:30 10° NE visible
05 Mar - 12:20:17 10° WNW 12:28:55 39° N 12:37:50 10° ENE visible
05 Mar - 14:25:42 10° NW 14:35:11 65° NNE 14:45:01 10° ESE visible
05 Mar - 16:30:42 10° WNW 16:39:51 48° SW 16:49:18 10° SSE night (unlit)
06 Mar - 05:44:29 10° SSE 05:48:50 14° ESE 05:53:10 10° E daylight
06 Mar - 07:43:09 10° SW 07:52:09 64° SE 08:01:16 10° ENE daylight
06 Mar - 09:48:09 10° W 09:57:04 53° NNW 10:06:16 10° NE visible
06 Mar - 11:55:00 10° WNW 12:03:35 39° N 12:12:27 10° ENE visible
06 Mar - 14:00:32 10° NW 14:09:56 61° NNE 14:19:40 10° ESE visible
06 Mar - 16:05:27 10° WNW 16:14:42 53° SW 16:24:16 10° SSE night (unlit)
06 Mar - 18:15:55 10° WSW 18:18:03 11° WSW 18:20:14 10° SW night (unlit)
07 Mar - 05:20:37 10° SE 05:23:48 12° ESE 05:26:59 10° E daylight
07 Mar - 07:18:07 10° SSW 07:27:02 58° SE 07:36:02 10° ENE daylight
07 Mar - 09:22:51 10° W 09:31:49 55° NNW 09:41:02 10° NE visible
07 Mar - 11:29:42 10° WNW 11:38:15 39° N 11:47:04 10° ENE visible
07 Mar - 13:35:21 10° NW 13:44:40 58° NNE 13:54:19 10° ESE visible
07 Mar - 15:40:13 10° WNW 15:49:33 57° SW 15:59:13 10° SSE visible
07 Mar - 17:49:10 10° W 17:53:00 13° WSW 17:56:52 10° SW night (unlit)
08 Mar - 04:57:57 10° SE 04:58:46 10° ESE 04:59:36 10° ESE daylight
08 Mar - 06:53:08 10° SSW 07:01:56 53° SE 07:10:47 10° ENE daylight
08 Mar - 08:57:34 10° WSW 09:06:35 58° NNW 09:15:49 10° NE daylight
08 Mar - 11:04:24 10° WNW 11:12:55 39° N 11:21:42 10° ENE visible
08 Mar - 13:10:11 10° NW 13:19:24 55° NNE 13:28:57 10° E visible
08 Mar - 15:15:01 10° WNW 15:24:24 62° SW 15:34:09 10° SE visible
08 Mar - 17:23:03 10° W 17:27:55 15° WSW 17:32:52 10° SSW night (unlit)
09 Mar - 06:28:09 10° SSW 06:36:49 49° SE 06:45:32 10° ENE daylight
09 Mar - 08:32:18 10° WSW 08:41:21 62° NNW 08:50:36 10° NE daylight
09 Mar - 10:39:06 10° WNW 10:47:36 39° N 10:56:20 10° ENE visible
09 Mar - 12:45:00 10° NW 12:54:08 52° NNE 13:03:34 10° E visible
09 Mar - 14:49:48 10° WNW 14:59:14 67° SW 15:09:02 10° SE visible
09 Mar - 16:57:12 10° W 17:02:51 17° SW 17:08:37 10° SSW night (unlit)
10 Mar - 06:03:13 10° SSW 06:11:44 44° SE 06:20:16 10° ENE daylight
10 Mar - 08:07:03 10° WSW 08:16:09 65° NNW 08:25:24 10° NE daylight
10 Mar - 10:13:47 10° WNW 10:22:16 39° N 10:31:00 10° ENE visible
10 Mar - 12:19:48 10° NW 12:28:51 50° NNE 12:38:12 10° E visible
10 Mar - 14:24:37 10° WNW 14:34:04 73° SW 14:43:54 10° SE visible
10 Mar - 16:31:30 10° W 16:37:46 19° SW 16:44:11 10° SSW night (unlit)
11 Mar - 05:38:19 10° SSW 05:46:39 40° SE 05:54:59 10° ENE daylight
11 Mar - 07:41:48 10° WSW 07:50:56 69° NNW 08:00:12 10° NE daylight
11 Mar - 09:48:27 10° WNW 09:56:57 39° N 10:05:39 10° ENE visible
11 Mar - 11:54:37 10° NW 12:03:34 48° NNE 12:12:49 10° E visible
11 Mar - 13:59:26 10° WNW 14:08:54 78° SW 14:18:45 10° SE visible
11 Mar - 16:05:55 10° W 16:12:41 22° SW 16:19:39 10° S night (unlit)
12 Mar - 05:13:26 10° SSW 05:21:35 36° SE 05:29:40 10° ENE daylight
12 Mar - 07:16:34 10° WSW 07:25:44 74° NNW 07:35:01 10° NE daylight
12 Mar - 09:23:08 10° WNW 09:31:39 40° N 09:40:21 10° ENE visible
12 Mar - 11:29:25 10° NW 11:38:16 46° NNE 11:47:25 10° E visible
12 Mar - 13:34:15 10° NW 13:43:44 84° SW 13:53:35 10° SE visible
12 Mar - 15:40:24 10° WNW 15:47:37 24° SW 15:55:01 10° S night (unlit)
13 Mar - 04:48:37 10° S 04:56:31 33° SE 05:04:20 10° ENE daylight
13 Mar - 06:51:21 10° WSW 07:00:33 79° NNW 07:09:50 10° NE daylight
13 Mar - 08:57:48 10° W 09:06:20 41° N 09:15:04 10° ENE daylight
13 Mar - 11:04:12 10° NW 11:12:59 44° NNE 11:22:01 10° E visible
13 Mar - 13:09:05 10° NW 13:18:33 89° SW 13:28:23 10° SE visible
13 Mar - 15:14:57 10° WNW 15:22:31 27° SW 15:30:18 10° S visible
